Back to catalog

TIANMU-1 14

AliveWeatherSSO
NORAD 58648·PAYLOAD·🇨🇳 China

Launched Dec 25, 2023 from Jiuquan Satellite Launch Center

Loading…

Next Passes (next 24 hours)

TLE

FreshSource: Space-Track

Epoch: Sep 14, 2026, 14:38 UTC

1 58648U 23205D   26257.61003632  .00004491  00000-0  16977-3 0  9997
2 58648  97.3385 276.9310 0007705  32.7796 327.3920 15.27456198151156

Track TIANMU-1 14 in real time with AllMySat

Download on the App Store